New Delhi, India

6:29 AM IST on July 23, 2017 (GMT +0530)
Indira Gandhi International

Weather History for VIDP - July, 2013

Change the Weather History Date:

Wednesday, July 24, 2013

  Actual Average Record
Temperature  
Mean Temperature 88 °F -  
Max Temperature 95 °F 92 °F 102 °F (2000)
Min Temperature 82 °F 79 °F 75 °F (2000)
Cooling Degree Days 24    
Growing Degree Days 38 (Base 50)    
Moisture  
Dew Point 81 °F    
Average Humidity 85    
Maximum Humidity 94    
Minimum Humidity 63    
Precipitation  
Precipitation 0.00 in - - ()
Sea Level Pressure  
Sea Level Pressure 29.50 in    
Wind  
Wind Speed 5 mph ()    
Max Wind Speed 12 mph    
Max Gust Speed 23 mph    
Visibility 1.7 miles    
Events      
Averages and records for this station are not official NWS values.
T = Trace of Precipitation, MM = Missing Value Source: Averaged Metar Reports

Daily Weather History Graph

Daily Weather History Graph

Search for Another Location

Airport or City:

Trip Planner

Search our weather history database for the weather conditions in past years. The results will help you decide how hot, cold, wet, or windy it might be!

Date:

Astronomy

Jul. 24, 2013 Rise Set
Actual Time 5:38 AM IST 7:17 PM IST
Civil Twilight 5:12 AM IST 7:43 PM IST
Nautical Twilight 4:41 AM IST 8:14 PM IST
Astronomical Twilight 4:08 AM IST 8:46 PM IST
Moon 8:22 PM IST (7/24) 7:12 AM IST (7/24)
Length of Visible Light 14h 30m
Length of Day
13h 38m
Waning Gibbous, 97% of the Moon is Illuminated
Jul 24
Waning Gibbous
Jul 29
Last Quarter
Aug 7
New
Aug 14
First Quarter
Aug 21
Full

Hourly Weather History & Observations

Time (IST) Temp. Heat Index Dew Point Humidity Pressure Visibility Wind Dir Wind Speed Gust Speed Precip Events Conditions
12:00 AM 86.0 °F 101.9 °F 80.6 °F 84% 29.53 in 1.4 mi ESE 4.6 mph - N/A   Scattered Clouds
12:30 AM 86.0 °F 101.9 °F 80.6 °F 84% 29.53 in 1.3 mi East 4.6 mph - N/A   Scattered Clouds
1:00 AM 84.2 °F 98.3 °F 80.6 °F 89% 29.53 in 1.3 mi East 9.2 mph - N/A   Scattered Clouds
1:30 AM 84.2 °F 98.3 °F 80.6 °F 89% 29.53 in 1.3 mi East 4.6 mph - N/A   Scattered Clouds
2:00 AM 84.2 °F 98.3 °F 80.6 °F 89% 29.50 in 1.3 mi East 4.6 mph - N/A   Partly Cloudy
2:30 AM 84.2 °F 98.3 °F 80.6 °F 89% 29.50 in 1.3 mi East 3.5 mph - N/A   Partly Cloudy
3:00 AM 84.2 °F 98.3 °F 80.6 °F 89% 29.50 in 1.3 mi East 2.3 mph - N/A   Partly Cloudy
3:30 AM 84.2 °F 100.6 °F 82.4 °F 94% 29.50 in 1.3 mi Calm Calm - N/A   Partly Cloudy
4:00 AM 84.2 °F 100.6 °F 82.4 °F 94% 29.50 in 1.3 mi East 3.5 mph - N/A   Partly Cloudy
4:30 AM 84.2 °F 100.6 °F 82.4 °F 94% 29.50 in 1.3 mi East 3.5 mph - N/A   Partly Cloudy
5:00 AM 84.2 °F 100.6 °F 82.4 °F 94% 29.50 in 1.3 mi East 3.5 mph - N/A   Scattered Clouds
5:30 AM 84.2 °F 100.6 °F 82.4 °F 94% 29.50 in 1.3 mi ESE 4.6 mph - N/A   Scattered Clouds
6:00 AM 84.2 °F 100.6 °F 82.4 °F 94% 29.53 in 1.3 mi East 4.6 mph - N/A   Scattered Clouds
6:30 AM 84.2 °F 100.6 °F 82.4 °F 94% 29.53 in 1.3 mi ESE 4.6 mph - N/A   Scattered Clouds
7:00 AM 84.2 °F 98.3 °F 80.6 °F 89% 29.53 in 1.3 mi ESE 6.9 mph - N/A   Scattered Clouds
7:30 AM 84.2 °F 98.3 °F 80.6 °F 89% 29.53 in 1.3 mi ESE 5.8 mph - N/A   Scattered Clouds
8:00 AM 86.0 °F 101.9 °F 80.6 °F 84% 29.53 in 1.3 mi ESE 5.8 mph - N/A   Scattered Clouds
8:30 AM 86.0 °F 104.7 °F 82.4 °F 89% 29.53 in 1.4 mi ESE 5.8 mph - N/A   Scattered Clouds
9:00 AM 86.0 °F 104.7 °F 82.4 °F 89% 29.53 in 1.4 mi ESE 4.6 mph - N/A   Scattered Clouds
9:30 AM 87.8 °F 108.2 °F 82.4 °F 84% 29.53 in 1.4 mi East 4.6 mph - N/A   Scattered Clouds
10:00 AM 87.8 °F 108.2 °F 82.4 °F 84% 29.53 in 1.6 mi SE 6.9 mph - N/A   Scattered Clouds
10:30 AM 89.6 °F 108.2 °F 80.6 °F 75% 29.53 in 1.7 mi SE 8.1 mph - N/A   Scattered Clouds
12:30 PM 93.2 °F 113.6 °F 80.6 °F 67% 29.53 in 2.5 mi SE 8.1 mph - N/A   Haze
1:00 PM 93.2 °F 113.6 °F 80.6 °F 67% 29.50 in 2.5 mi SSE 5.8 mph - N/A   Haze
1:30 PM 95.0 °F 115.8 °F 80.6 °F 63% 29.50 in 2.5 mi SE 6.9 mph - N/A   Haze
2:00 PM 95.0 °F 115.8 °F 80.6 °F 63% 29.50 in 2.5 mi SSE 5.8 mph - N/A   Haze
2:30 PM 95.0 °F 115.8 °F 80.6 °F 63% 29.47 in 2.5 mi ESE 5.8 mph - N/A   Haze
3:00 PM 95.0 °F 115.8 °F 80.6 °F 63% 29.44 in 2.5 mi ESE 4.6 mph - N/A   Haze
3:30 PM 95.0 °F 119.6 °F 82.4 °F 67% 29.44 in 2.5 mi ENE 4.6 mph - N/A   Haze
4:00 PM 87.8 °F 104.9 °F 80.6 °F 79% 29.44 in 2.2 mi NNE 11.5 mph 23.0 mph N/A   Mostly Cloudy
5:00 PM 84.2 °F 98.3 °F 80.6 °F 89% 29.44 in 1.9 mi ENE 9.2 mph - N/A   Mostly Cloudy
5:30 PM 84.2 °F 96.1 °F 78.8 °F 84% 29.47 in 1.9 mi East 6.9 mph - N/A   Mostly Cloudy
6:00 PM 84.2 °F 96.1 °F 78.8 °F 84% 29.47 in 1.9 mi East 6.9 mph - N/A   Mostly Cloudy
6:30 PM 84.2 °F 98.3 °F 80.6 °F 89% 29.44 in 1.9 mi ESE 9.2 mph - N/A   Mostly Cloudy
7:00 PM 84.2 °F 98.3 °F 80.6 °F 89% 29.44 in 1.6 mi East 6.9 mph - N/A   Mostly Cloudy
7:30 PM 84.2 °F 98.3 °F 80.6 °F 89% 29.47 in 1.6 mi ESE 10.4 mph - N/A   Mostly Cloudy
8:00 PM 84.2 °F 98.3 °F 80.6 °F 89% 29.47 in 1.6 mi ESE 8.1 mph - N/A   Mostly Cloudy
8:30 PM 84.2 °F 98.3 °F 80.6 °F 89% 29.47 in 1.6 mi East 6.9 mph - N/A   Mostly Cloudy
9:00 PM 84.2 °F 98.3 °F 80.6 °F 89% 29.47 in 1.6 mi East 5.8 mph - N/A   Mostly Cloudy
9:30 PM 82.4 °F 94.0 °F 80.6 °F 94% 29.47 in 1.6 mi ESE 5.8 mph - N/A   Mostly Cloudy
10:00 PM 82.4 °F 94.0 °F 80.6 °F 94% 29.50 in 1.6 mi ESE 4.6 mph - N/A   Mostly Cloudy
10:30 PM 82.4 °F 94.0 °F 80.6 °F 94% 29.50 in 1.6 mi East 4.6 mph - N/A   Mostly Cloudy
11:00 PM 82.4 °F 92.4 °F 78.8 °F 89% 29.50 in 1.6 mi East 4.6 mph - N/A   Mostly Cloudy
11:30 PM 82.4 °F 92.4 °F 78.8 °F 89% 29.50 in 1.4 mi ESE 5.8 mph - N/A   Mostly Cloudy